sat.trackr.live / text

‹ back to catalog

STARLINK-36399

NORAD 67665 · 2026-022T

PAYLOAD ACTIVE UNKNOWN

§ Identity

Operator
Country
US
Launch date
2026-02-02
Launch site
AFWTR
Launch vehicle
Mass (kg)
RCS (m²)

Purposes: comms

External: N2YO · Heavens-Above · Gunter

§ Orbital elements

Epoch: 2026-09-19T07:54:19.461888Z

Period
93.91 min
Inclination
97.2822°
Eccentricity
0.0001175
Mean motion
15.33442192 rev/d
Perigee alt
464.7 km
Apogee alt
466.4 km
Semi-major
6,843.7 km
B*
3.7894e-4
RAAN
293.8461°
Arg perigee
132.1575°
Mean anomaly
227.9768°
Rev number
3,524

§ Raw data

STARLINK-363991 67665U 26022T   26262.32939192  .00012177  00000+0  37894-3 0  99992 67665  97.2822 293.8461 0001175 132.1575 227.9768 15.33442192 35242

JSON: /api/v1/satellites/67665 · /tle

For live sub-satellite position, see the globe view (requires WebGL).

§ Visibility from observer

Set your observer location to see the next 7 days of passes ≥ 10°. The values pass through the URL so the page stays shareable.

No JS? Fill the form by hand. The geolocation button needs JavaScript.